Location: Newark
(56.0692°N, 115.8617°E)
Time: 05:37:34
(UTC+00:00)

Vanguard 3 - All Passes

Search period start: 06 June 2020 00:00
Search period end: 16 June 2020 00:00
Orbit: 509 x 3261 km, 33.3° (Epoch: 05 June)

Date Brightness Start Highest point End Pass type
(mag) Time Alt. Az. Time Alt. Az. Time Alt. Az.
06 Jun - 16:00:04 10° S 16:11:23 19° SSE 16:21:17 10° ESE visible
06 Jun - 18:09:47 10° SW 18:23:52 28° S 18:34:36 10° ESE visible
06 Jun - 20:23:49 10° WSW 20:35:59 25° SSW 20:44:41 10° SSE daylight
06 Jun - 22:41:37 10° WSW 22:46:30 13° SW 22:50:37 10° SSW daylight
07 Jun - 14:49:05 10° SSE 14:56:40 14° SE 15:03:52 10° ESE visible
07 Jun - 16:54:54 10° SSW 17:08:53 26° SSE 17:20:23 10° ESE visible
07 Jun - 19:07:19 10° SW 19:21:28 29° S 19:31:51 10° SE daylight
07 Jun - 21:23:00 10° WSW 21:32:58 20° SSW 21:40:23 10° SSE daylight
08 Jun - 15:41:14 10° S 15:53:52 21° SSE 16:05:10 10° ESE visible
08 Jun - 17:51:31 10° SW 18:06:33 30° S 18:18:19 10° ESE visible
08 Jun - 20:05:45 10° WSW 20:18:51 27° SSW 20:28:24 10° SSE daylight
08 Jun - 22:23:56 10° WSW 22:29:28 13° SW 22:34:08 10° SSW daylight
09 Jun - 14:29:30 10° S 14:39:03 16° SE 14:48:16 10° ESE visible
09 Jun - 16:36:35 10° SSW 16:51:24 28° SSE 17:04:00 10° ESE visible
09 Jun - 18:49:13 10° WSW 19:04:11 30° S 19:15:30 10° SE daylight
09 Jun - 21:05:06 10° WSW 21:15:50 21° SSW 21:23:58 10° S daylight
10 Jun - 15:22:48 10° SSW 15:36:15 24° SSE 15:48:44 10° ESE visible
10 Jun - 17:33:25 10° SW 17:49:06 32° S 18:01:50 10° ESE visible
10 Jun - 19:47:46 10° WSW 20:01:35 27° SSW 20:11:57 10° SSE daylight
10 Jun - 22:06:19 10° WSW 22:12:18 13° SW 22:17:23 10° SSW daylight
11 Jun - 14:10:39 10° S 14:21:23 18° SE 14:32:03 10° ESE visible
11 Jun - 16:18:30 10° SW 16:33:48 30° SSE 16:47:24 10° ESE visible
11 Jun - 18:31:15 10° WSW 18:46:46 31° S 18:58:58 10° SE visible
11 Jun - 20:47:15 10° WSW 20:58:34 21° SSW 21:07:21 10° S daylight
12 Jun - 13:02:25 10° SE 13:06:58 11° SE 13:11:36 10° ESE daylight
12 Jun - 15:04:41 10° SSW 15:18:34 26° SSE 15:32:03 10° ESE visible
12 Jun - 17:15:31 10° SW 17:31:32 33° S 17:45:11 10° ESE visible
12 Jun - 19:29:53 10° WSW 19:44:11 28° SSW 19:55:20 10° SSE daylight
12 Jun - 21:48:52 10° WSW 21:55:00 13° SW 22:00:20 10° SSW daylight
13 Jun - 13:52:18 10° S 14:03:40 20° SE 14:15:25 10° ESE visible
13 Jun - 16:00:41 10° SW 16:16:09 31° SSE 16:30:36 10° ESE visible
13 Jun - 18:13:26 10° WSW 18:29:15 32° S 18:42:16 10° SE visible
13 Jun - 20:29:30 10° WSW 20:41:10 21° SW 20:50:32 10° S daylight
14 Jun - 12:42:44 10° SSE 12:49:15 13° SE 12:56:06 10° ESE daylight
14 Jun - 14:46:52 10° SSW 15:00:52 27° SSE 15:15:07 10° ESE visible
14 Jun - 16:57:49 10° SW 17:13:55 34° S 17:28:21 10° SE visible
14 Jun - 19:12:08 10° WSW 19:26:41 28° SSW 19:38:31 10° SSE daylight
14 Jun - 21:31:37 10° WSW 21:37:36 13° SW 21:42:55 10° SSW daylight
15 Jun - 13:34:21 10° S 13:45:56 21° SE 13:58:28 10° ESE daylight
15 Jun - 15:43:04 10° SW 15:58:27 32° SSE 16:13:36 10° ESE visible
15 Jun - 17:55:47 10° WSW 18:11:39 32° SSW 18:25:23 10° SE visible
15 Jun - 20:11:53 10° WSW 20:23:39 20° SW 20:33:27 10° S daylight
